Location: Austin
(30.3000°N, 97.7500°W)
Time: 23:45:03
(UTC-05:00)

SL-8 R/B - Pass Details

Date: 06 May 2026
Orbit: 646 x 656 km, 48.4° (Epoch: 13 May)

Event Time Altitude Azimuth Distance (km) Brightness Sun altitude
Rises 21:31:08 0° 316° (NW) 2,960 8.6 -16.2°
Reaches altitude 10° 21:33:32 10° 321° (NW) 2,046 7.3 -16.6°
Maximum altitude 21:38:07 50° 38° (NE) 819 4.1 -17.5°
Enters shadow 21:39:58 32° 95° (E) 1,116 4.4 -17.8°
